Location: Elm Mott Branch
(32.1549°N, 97.5139°W)
Time: 10:31:31
(UTC+00:00)

SL-8 R/B - Pass Details

Date: 18 November 2025
Orbit: 646 x 657 km, 48.4° (Epoch: 07 December)

Event Time Altitude Azimuth Distance (km) Brightness Sun altitude
Exits shadow 12:14:09 - 244° (WSW) 2,451 6.2 -10.4°
Reaches altitude 10° 12:15:11 10° 247° (WSW) 2,057 5.8 -10.2°
Maximum altitude 12:19:49 52° 324° (NW) 808 3.9 -9.2°
Drops below altitude 10° 12:24:28 10° 41° (NE) 2,058 6.6 -8.3°
Sets 12:26:52 0° 46° (NE) 2,970 7.5 -7.8°
